PBO Station Position Time Series. Reference Frame : NAM14
Format Version,1.1.0
4-character ID,RBRU
Station name,None
Begin Date, 2006-08-29
End Date, 2019-09-10
Release Date, 2019-10-03
Reference position, 36.7591265440 North Latitude, -119.8286678920 East Longitude, 59.35132 meters elevation,
Date, North (mm), East (mm), Vertical (mm), North Std. Deviation (mm), East Std. Deviation (mm),              Vertical Std. Deviation (mm), Quality,
2006-08-29,0.00, 0.00, -5099.60, 15.53, 13.96, 57.09, repro,
2006-08-30,-226.41, 224.34, 144.48, 14.24, 16.47, 51.18, repro,
2006-08-31,-102.76, 354.54, 50.85, 8.11, 6.26, 21.93, repro,
2006-09-01,-40.97, 359.96, -13.87, 7.77, 5.43, 20.26, repro,
2006-09-02,-18.05, 368.79, -68.99, 7.97, 5.49, 22.43, repro,
2006-09-03,-60.10, 386.24, -13.56, 8.88, 8.63, 24.27, repro,
2006-09-04,-31.19, 361.19, 12.20, 10.13, 6.56, 21.80, repro,
2006-09-05,-39.86, 356.42, 0.00, 8.58, 6.12, 18.71, repro,
2006-09-06,-88.64, 330.81, -12.07, 8.88, 6.05, 25.63, repro,
2006-11-07,-43.15, 74.97, -1886.25, 5.92, 5.18, 25.61, repro,
2006-11-08,-42.58, 78.11, -1898.34, 2.07, 1.74, 7.98, repro,
2006-11-09,-42.88, 78.07, -1906.72, 2.46, 2.12, 9.67, repro,
2006-11-10,-40.12, 78.96, -1907.84, 2.03, 1.68, 7.75, repro,
2006-11-11,-42.12, 79.84, -1895.59, 2.07, 1.75, 8.04, repro,
2006-11-12,-42.23, 79.40, -1898.37, 2.11, 1.77, 8.08, repro,
2006-11-13,-43.75, 76.90, -1887.20, 3.88, 3.41, 15.61, repro,
2006-11-14,-40.77, 78.01, -1896.83, 3.01, 2.54, 12.00, repro,
2006-11-15,-40.57, 78.37, -1913.15, 2.58, 2.26, 10.11, repro,
2006-11-16,-36.88, 82.14, -1900.87, 4.03, 3.50, 15.60, repro,
2006-11-17,-41.79, 80.08, -1907.06, 1.96, 1.67, 7.49, repro,
2006-11-18,-41.98, 79.54, -1903.13, 1.96, 1.65, 7.42, repro,
2006-11-19,-39.84, 78.90, -1910.00, 2.78, 2.44, 10.86, repro,
2006-11-20,-42.96, 76.74, -1920.89, 3.35, 2.92, 13.37, repro,
2006-11-21,-40.58, 77.66, -1898.55, 1.94, 1.63, 7.33, repro,
2006-11-22,-41.71, 78.03, -1908.55, 1.97, 1.66, 7.53, repro,
2006-11-23,-42.69, 78.41, -1909.08, 1.98, 1.70, 7.65, repro,
2006-11-24,-40.67, 78.37, -1904.86, 2.04, 1.72, 7.77, repro,
2006-11-25,-41.65, 78.83, -1903.48, 1.99, 1.66, 7.51, repro,
2006-11-26,-41.05, 76.77, -1906.22, 1.98, 1.65, 7.48, repro,
2006-11-27,-40.30, 76.82, -1915.26, 2.28, 2.00, 8.93, repro,
2006-11-28,-44.58, 75.90, -1896.96, 3.76, 3.39, 15.50, repro,
2006-11-29,-42.08, 78.68, -1903.71, 1.99, 1.70, 7.63, repro,
2006-11-30,-40.47, 79.07, -1908.91, 1.97, 1.67, 7.56, repro,
2006-12-01,-42.84, 76.77, -1909.30, 3.76, 3.23, 14.96, repro,
2006-12-02,-38.76, 79.02, -1917.68, 1.94, 1.64, 7.37, repro,
2006-12-03,-40.13, 77.93, -1914.89, 1.96, 1.65, 7.39, repro,
2006-12-04,-40.62, 77.82, -1913.14, 1.99, 1.66, 7.45, repro,
2006-12-05,-41.49, 78.56, -1901.40, 2.65, 2.58, 10.76, repro,
2006-12-06,-41.15, 78.75, -1909.45, 2.02, 1.79, 7.77, repro,
2006-12-07,-40.21, 78.87, -1913.77, 1.99, 1.73, 7.60, repro,
2006-12-08,-40.33, 78.64, -1910.69, 1.98, 1.72, 7.60, repro,
2006-12-09,-42.13, 76.56, -1905.97, 1.98, 1.74, 7.63, repro,
2006-12-10,-44.34, 76.90, -1901.30, 2.03, 1.74, 7.68, repro,
2006-12-11,-41.27, 77.55, -1909.02, 1.95, 1.68, 7.51, repro,
2006-12-12,-40.97, 78.33, -1912.57, 2.01, 1.74, 7.65, repro,
2006-12-13,-41.06, 78.89, -1908.43, 1.97, 1.74, 7.60, repro,
2006-12-14,-40.83, 79.36, -1902.98, 2.75, 2.60, 11.05, repro,
2006-12-15,-42.10, 76.60, -1910.25, 1.98, 1.75, 7.62, repro,
2006-12-16,-41.78, 76.87, -1901.82, 2.06, 1.79, 7.69, repro,
2006-12-17,-40.70, 78.08, -1903.35, 2.01, 1.76, 7.81, repro,
2006-12-18,-38.96, 80.34, -1909.52, 2.48, 2.17, 9.63, repro,
2006-12-19,-38.02, 80.73, -1912.53, 2.04, 1.85, 8.02, repro,
2006-12-20,-39.89, 79.30, -1910.47, 2.07, 1.78, 7.77, repro,
2006-12-21,-41.34, 77.97, -1912.24, 1.95, 1.79, 7.60, repro,
2006-12-22,-41.13, 77.77, -1903.88, 2.09, 1.93, 8.20, repro,
2006-12-23,-41.28, 79.51, -1901.62, 2.02, 1.78, 7.91, repro,
2006-12-24,-40.31, 80.95, -1915.08, 1.94, 1.68, 7.52, repro,
2006-12-25,-40.29, 79.11, -1916.49, 1.97, 1.74, 7.63, repro,
2006-12-26,-40.52, 78.87, -1906.86, 2.00, 1.75, 7.73, repro,
2006-12-27,-40.29, 76.37, -1905.29, 2.03, 1.80, 7.98, repro,
2006-12-28,-39.24, 77.81, -1906.87, 2.17, 1.93, 8.35, repro,
2007-01-27,-40.52, 77.21, -1911.14, 2.03, 1.72, 7.53, repro,
2007-01-28,-42.29, 77.44, -1908.31, 1.92, 1.63, 7.21, repro,
2007-01-29,-43.00, 78.26, -1911.07, 2.15, 1.80, 7.87, repro,
2007-01-30,-42.61, 78.54, -1911.36, 1.97, 1.68, 7.31, repro,
2007-01-31,-42.98, 77.62, -1905.86, 1.91, 1.63, 7.11, repro,
2007-02-01,-43.16, 77.95, -1907.60, 1.94, 1.66, 7.24, repro,
2007-02-02,-42.50, 79.23, -1908.83, 1.94, 1.63, 7.29, repro,
2007-02-03,-42.60, 79.04, -1911.80, 1.92, 1.63, 7.25, repro,
2007-02-04,-41.42, 78.86, -1912.99, 1.90, 1.61, 7.10, repro,
2007-02-05,-41.19, 78.50, -1918.46, 1.91, 1.61, 7.11, repro,
2007-02-06,-43.46, 77.44, -1916.98, 2.27, 1.83, 8.34, repro,
2007-02-07,-42.85, 78.94, -1909.62, 2.78, 2.34, 10.33, repro,
2007-02-08,-43.31, 80.29, -1906.76, 2.42, 2.13, 9.26, repro,
2007-02-09,-42.46, 79.70, -1906.66, 1.92, 1.68, 7.32, repro,
2007-02-10,-43.42, 78.21, -1912.54, 1.91, 1.61, 7.12, repro,
2007-02-11,-40.07, 77.77, -1911.33, 1.94, 1.64, 7.24, repro,
2007-02-12,-42.66, 76.43, -1911.10, 1.91, 1.62, 7.14, repro,
2007-02-13,-43.58, 77.19, -1915.64, 1.90, 1.61, 7.13, repro,
2007-02-14,-41.98, 78.01, -1913.75, 1.88, 1.61, 7.08, repro,
2007-02-15,-41.06, 78.20, -1914.50, 2.15, 1.80, 8.00, repro,
2007-02-16,-41.27, 78.20, -1912.98, 1.92, 1.63, 7.23, repro,
2007-02-17,-41.60, 78.22, -1913.08, 1.96, 1.67, 7.26, repro,
2007-02-18,-43.24, 77.54, -1905.55, 1.91, 1.61, 7.17, repro,
2007-02-19,-42.93, 76.76, -1902.61, 1.91, 1.61, 7.22, repro,
2007-02-20,-42.52, 77.47, -1901.26, 1.90, 1.62, 7.15, repro,
2007-02-21,-41.45, 78.41, -1908.64, 1.92, 1.62, 7.18, repro,
2007-02-22,-43.29, 78.10, -1905.08, 1.99, 1.66, 7.34, repro,
2007-02-23,-40.84, 78.13, -1909.28, 2.02, 1.72, 7.58, repro,
2007-02-24,-41.88, 77.53, -1907.63, 1.90, 1.62, 7.16, repro,
2007-02-25,-43.09, 78.81, -1905.65, 1.91, 1.61, 7.15, repro,
2007-02-26,-42.75, 78.79, -1911.24, 1.93, 1.63, 7.19, repro,
2007-02-27,-41.26, 78.90, -1908.36, 2.60, 2.07, 9.63, repro,
2010-09-16,-42.01, 76.87, -1917.85, 2.01, 1.67, 7.49, repro,
2010-09-17,-39.70, 77.25, -1921.46, 1.93, 1.58, 7.07, repro,
2010-09-18,-41.29, 75.28, -1917.96, 1.95, 1.58, 7.11, repro,
2010-09-19,-40.30, 77.16, -1925.80, 1.96, 1.58, 7.13, repro,
2010-09-20,-41.63, 76.69, -1915.03, 1.95, 1.57, 7.07, repro,
2010-09-21,-40.63, 76.21, -1917.88, 1.94, 1.61, 7.19, repro,
2010-09-22,-40.43, 76.57, -1915.71, 1.94, 1.62, 7.25, repro,
2010-09-23,-40.11, 77.29, -1923.46, 1.99, 1.58, 7.17, repro,
2010-09-24,-40.58, 76.37, -1925.98, 1.91, 1.56, 6.97, repro,
2010-09-25,-42.31, 76.98, -1925.71, 1.94, 1.58, 7.09, repro,
2010-09-26,-41.73, 76.97, -1923.70, 1.93, 1.56, 7.02, repro,
2010-09-27,-40.83, 76.06, -1919.60, 1.98, 1.63, 7.14, repro,
2010-09-28,-39.81, 76.96, -1920.03, 2.01, 1.67, 7.24, repro,
2010-09-29,-39.99, 77.36, -1925.19, 1.93, 1.56, 6.99, repro,
2010-09-30,-41.84, 76.57, -1920.86, 1.97, 1.58, 7.12, repro,
2010-10-01,-40.97, 76.98, -1917.90, 1.97, 1.60, 7.18, repro,
2010-10-02,-40.87, 77.50, -1924.93, 1.94, 1.58, 7.10, repro,
2010-10-03,-38.04, 79.37, -1930.39, 1.98, 1.61, 7.26, repro,
2010-10-04,-39.14, 77.95, -1920.66, 2.02, 1.65, 7.39, repro,
2010-10-05,-41.20, 78.21, -1926.29, 1.95, 1.59, 7.16, repro,
2010-10-06,-39.95, 79.01, -1929.69, 1.95, 1.58, 7.14, repro,
2010-10-07,-40.94, 77.14, -1927.68, 1.94, 1.60, 7.14, repro,
2010-10-08,-39.21, 78.54, -1930.96, 2.01, 1.63, 7.23, repro,
2010-10-09,-41.17, 76.87, -1932.22, 1.99, 1.60, 7.22, repro,
2010-10-10,-41.35, 77.37, -1921.36, 2.00, 1.60, 7.26, repro,
2010-10-11,-40.07, 77.03, -1930.95, 1.99, 1.59, 7.21, repro,
2010-10-12,-40.21, 77.36, -1922.11, 2.27, 1.80, 7.99, repro,
2010-10-13,-40.95, 77.38, -1930.90, 1.94, 1.57, 7.01, repro,
2010-10-14,-41.32, 77.87, -1930.43, 1.95, 1.59, 7.15, repro,
2010-10-15,-42.46, 78.11, -1930.04, 1.98, 1.62, 7.28, repro,
2010-10-16,-40.59, 76.94, -1925.06, 1.96, 1.59, 7.16, repro,
2010-10-17,-42.37, 79.36, -1919.26, 2.01, 1.64, 7.41, repro,
2010-10-18,-41.67, 79.22, -1928.36, 1.96, 1.58, 7.08, repro,
2010-10-19,-40.26, 78.78, -1931.33, 1.97, 1.61, 7.13, repro,
2010-10-20,-38.71, 78.57, -1931.80, 1.94, 1.57, 7.05, repro,
2010-10-21,-41.40, 76.52, -1919.45, 1.98, 1.61, 7.18, repro,
2010-10-22,-40.18, 77.20, -1925.47, 1.93, 1.57, 7.02, repro,
2010-10-23,-40.50, 76.81, -1921.65, 1.99, 1.62, 7.23, repro,
2010-10-24,-41.88, 75.86, -1927.35, 1.98, 1.60, 7.21, repro,
2010-10-25,-40.50, 77.34, -1929.81, 2.01, 1.61, 7.31, repro,
2010-10-26,-40.29, 76.78, -1931.08, 1.95, 1.58, 7.11, repro,
2010-10-27,-39.77, 77.50, -1926.18, 1.94, 1.61, 7.20, repro,
2010-10-28,-42.46, 77.64, -1927.09, 1.91, 1.57, 7.02, repro,
2010-10-29,-41.75, 76.58, -1920.80, 1.92, 1.57, 7.04, repro,
2010-10-30,-42.50, 75.11, -1928.09, 1.96, 1.59, 7.12, repro,
2010-10-31,-41.71, 75.52, -1932.12, 2.05, 1.70, 7.47, repro,
2010-11-01,-40.40, 76.75, -1935.71, 2.00, 1.67, 7.37, repro,
2010-11-02,-41.57, 75.66, -1942.65, 1.94, 1.57, 7.13, repro,
2010-11-03,-42.08, 76.33, -1926.70, 1.92, 1.57, 7.02, repro,
2010-11-04,-42.06, 76.57, -1928.10, 1.92, 1.56, 7.00, repro,
2010-11-05,-40.55, 76.92, -1924.17, 1.99, 1.62, 7.16, repro,
2010-11-06,-42.07, 76.17, -1924.73, 1.93, 1.58, 7.08, repro,
2010-11-07,-41.47, 76.82, -1923.65, 1.94, 1.57, 7.08, repro,
2010-11-08,-43.56, 75.86, -1920.03, 1.95, 1.60, 7.25, repro,
2010-11-09,-43.58, 78.14, -1924.85, 1.93, 1.57, 7.04, repro,
2010-11-10,-42.84, 77.55, -1918.80, 1.93, 1.56, 7.00, repro,
2010-11-11,-40.21, 78.21, -1931.58, 1.92, 1.54, 6.96, repro,
2010-11-12,-39.64, 77.96, -1932.17, 1.93, 1.55, 7.01, repro,
2010-11-13,-40.87, 79.04, -1936.75, 1.99, 1.63, 7.28, repro,
2010-11-14,-42.58, 77.32, -1922.70, 2.00, 1.64, 7.33, repro,
2010-11-15,-41.44, 77.73, -1923.92, 1.97, 1.60, 7.24, repro,
2010-11-16,-40.62, 78.05, -1926.64, 2.01, 1.60, 7.27, repro,
2010-11-17,-40.27, 78.77, -1933.57, 2.02, 1.62, 7.41, repro,
2010-11-18,-41.33, 77.46, -1930.71, 2.00, 1.59, 7.30, repro,
2010-11-19,-43.15, 76.81, -1928.48, 2.02, 1.58, 7.16, repro,
2010-11-20,-41.88, 78.29, -1922.26, 2.01, 1.60, 7.30, repro,
2010-11-21,-42.81, 78.37, -1921.35, 2.05, 1.66, 7.39, repro,
2010-11-22,-42.95, 77.73, -1916.48, 2.04, 1.66, 7.40, repro,
2010-11-23,-43.69, 78.20, -1925.29, 1.97, 1.59, 7.20, repro,
2010-11-24,-44.09, 77.67, -1928.10, 1.99, 1.59, 7.25, repro,
2010-11-25,-42.04, 78.60, -1928.06, 1.95, 1.55, 7.00, repro,
2010-11-26,-42.09, 78.73, -1924.81, 1.97, 1.58, 7.14, repro,
2010-11-27,-44.83, 80.71, -1936.57, 1.97, 1.56, 7.11, repro,
2010-11-28,-44.44, 78.43, -1921.83, 1.98, 1.57, 7.22, repro,
2010-11-29,-41.94, 77.34, -1929.99, 2.01, 1.60, 7.41, repro,
2010-11-30,-44.28, 78.45, -1932.23, 1.97, 1.58, 7.18, repro,
2010-12-01,-43.68, 78.36, -1935.79, 2.01, 1.61, 7.32, repro,
2010-12-02,-44.58, 79.32, -1933.13, 2.03, 1.62, 7.37, repro,
2010-12-03,-43.55, 79.97, -1929.39, 1.99, 1.59, 7.32, repro,
2010-12-04,-42.46, 77.73, -1929.11, 1.99, 1.59, 7.29, repro,
2010-12-05,-43.91, 77.33, -1922.75, 2.05, 1.61, 7.53, repro,
2010-12-06,-44.36, 76.91, -1934.07, 1.98, 1.57, 7.20, repro,
2010-12-07,-42.52, 78.94, -1938.45, 2.00, 1.61, 7.32, repro,
2010-12-08,-42.42, 77.47, -1928.10, 1.99, 1.60, 7.31, repro,
2010-12-09,-42.44, 77.33, -1923.35, 1.98, 1.56, 7.14, repro,
2010-12-10,-43.27, 77.86, -1922.99, 2.01, 1.60, 7.40, repro,
2010-12-11,-46.01, 76.73, -1925.59, 2.00, 1.60, 7.22, repro,
2010-12-12,-43.74, 77.55, -1931.47, 1.97, 1.55, 7.16, repro,
2010-12-13,-42.32, 77.84, -1931.02, 1.99, 1.56, 7.20, repro,
2010-12-14,-41.24, 76.88, -1921.39, 2.02, 1.59, 7.36, repro,
2010-12-15,-43.57, 78.45, -1922.55, 2.06, 1.62, 7.37, repro,
2010-12-16,-44.80, 78.15, -1922.15, 1.96, 1.57, 7.20, repro,
2010-12-17,-44.58, 79.14, -1930.95, 2.01, 1.59, 7.20, repro,
2010-12-18,-43.14, 77.94, -1936.45, 1.99, 1.58, 7.10, repro,
2010-12-19,-41.49, 77.47, -1924.72, 1.99, 1.57, 7.21, repro,
2010-12-20,-41.58, 77.57, -1926.22, 1.97, 1.56, 7.15, repro,
2010-12-21,-42.77, 76.28, -1931.57, 1.97, 1.58, 7.17, repro,
2010-12-22,-41.69, 77.53, -1931.77, 2.04, 1.60, 7.27, repro,
2010-12-23,-41.90, 77.55, -1936.87, 2.05, 1.60, 7.32, repro,
2010-12-24,-42.11, 77.84, -1933.73, 1.99, 1.56, 7.22, repro,
2010-12-25,-44.54, 76.31, -1932.20, 5.34, 3.85, 18.99, repro,
2010-12-26,-40.36, 77.60, -1930.08, 2.00, 1.57, 7.26, repro,
2010-12-27,-42.95, 77.08, -1935.14, 1.94, 1.52, 6.97, repro,
2010-12-28,-42.54, 79.43, -1939.03, 2.03, 1.60, 7.33, repro,
2010-12-29,-42.51, 77.25, -1924.29, 2.08, 1.63, 7.50, repro,
2010-12-30,-41.78, 78.38, -1930.20, 2.02, 1.58, 7.33, repro,
2010-12-31,-42.79, 77.81, -1929.28, 1.97, 1.53, 7.12, repro,
2011-01-01,-41.37, 79.46, -1932.22, 1.97, 1.56, 7.18, repro,
2011-01-02,-40.63, 78.86, -1934.65, 1.98, 1.57, 7.19, repro,
2011-01-03,-41.98, 78.36, -1932.83, 1.98, 1.57, 7.22, repro,
2011-01-04,-42.68, 78.27, -1929.61, 2.08, 1.61, 7.37, repro,
2011-01-05,-40.90, 79.71, -1938.68, 1.96, 1.52, 7.05, repro,
2011-01-06,-42.22, 78.41, -1936.76, 1.98, 1.57, 7.17, repro,
2011-01-07,-42.24, 78.28, -1937.51, 1.99, 1.58, 7.22, repro,
2011-01-08,-41.53, 78.63, -1930.72, 1.99, 1.59, 7.22, repro,
2011-01-09,-43.03, 79.36, -1929.89, 1.96, 1.53, 7.06, repro,
2011-01-10,-41.47, 78.28, -1925.49, 2.02, 1.63, 7.41, repro,
2011-01-11,-40.94, 77.97, -1937.87, 2.06, 1.67, 7.63, repro,
2011-01-12,-39.90, 79.26, -1951.48, 1.96, 1.54, 7.05, repro,
2011-01-13,-40.24, 79.04, -1944.60, 2.02, 1.59, 7.28, repro,
2011-01-14,-41.49, 76.52, -1938.84, 1.99, 1.60, 7.24, repro,
2011-01-15,-40.06, 78.05, -1935.15, 1.99, 1.57, 7.17, repro,
2011-01-16,-41.19, 76.41, -1925.93, 1.99, 1.58, 7.21, repro,
2011-01-17,-40.65, 78.92, -1925.94, 1.95, 1.53, 7.03, repro,
2011-01-18,-41.22, 77.31, -1936.90, 1.99, 1.57, 7.23, repro,
2011-01-19,-41.30, 77.33, -1933.27, 2.00, 1.61, 7.32, repro,
2011-01-20,-41.15, 77.32, -1931.65, 2.00, 1.58, 7.22, repro,
2011-01-21,-41.68, 78.17, -1935.68, 2.00, 1.57, 7.23, repro,
2011-01-22,-42.30, 78.46, -1920.07, 2.02, 1.59, 7.29, repro,
2011-01-23,-42.15, 77.31, -1929.49, 2.02, 1.62, 7.43, repro,
2011-01-24,-41.90, 76.64, -1934.25, 1.98, 1.57, 7.27, repro,
2011-01-25,-40.39, 78.03, -1928.72, 1.99, 1.60, 7.32, repro,
2011-01-26,-40.50, 78.61, -1930.88, 2.16, 1.69, 7.87, repro,
2011-01-27,-39.53, 78.39, -1937.84, 2.00, 1.61, 7.35, repro,
2011-01-28,-41.16, 78.23, -1936.51, 1.95, 1.53, 7.07, repro,
2011-01-29,-43.90, 77.70, -1933.02, 2.11, 1.70, 7.85, repro,
2011-01-30,-41.87, 77.11, -1931.19, 1.93, 1.54, 7.07, repro,
2011-01-31,-40.27, 77.46, -1937.45, 1.96, 1.56, 7.18, repro,
2011-02-01,-41.89, 77.06, -1937.15, 1.97, 1.57, 7.24, repro,
2011-02-02,-41.54, 77.88, -1943.91, 2.02, 1.61, 7.40, repro,
2011-02-03,-43.23, 81.19, -1944.17, 1.98, 1.59, 7.23, repro,
2011-02-04,-44.15, 76.47, -1934.71, 1.99, 1.62, 7.33, repro,
2011-02-05,-43.63, 77.71, -1927.91, 1.99, 1.57, 7.26, repro,
2011-02-06,-43.01, 78.44, -1939.14, 2.01, 1.65, 7.53, repro,
2011-02-07,-42.92, 79.68, -1943.86, 2.02, 1.62, 7.44, repro,
2011-02-08,-42.96, 79.23, -1937.19, 2.02, 1.62, 7.46, repro,
2011-02-09,-42.99, 79.69, -1930.18, 1.97, 1.55, 7.18, repro,
2011-02-10,-43.05, 77.78, -1926.50, 1.97, 1.59, 7.20, repro,
2011-02-11,-43.20, 78.62, -1931.07, 2.00, 1.62, 7.38, repro,
2011-02-12,-42.18, 79.01, -1931.74, 2.00, 1.61, 7.36, repro,
2011-02-13,-41.61, 80.46, -1937.69, 1.98, 1.58, 7.28, repro,
2011-02-14,-43.14, 78.80, -1933.77, 1.98, 1.59, 7.33, repro,
2011-02-15,-42.66, 77.09, -1927.37, 2.03, 1.64, 7.45, repro,
2011-02-16,-42.51, 78.64, -1919.71, 2.03, 1.69, 7.66, repro,
2011-02-17,-43.91, 78.09, -1926.40, 1.99, 1.59, 7.35, repro,
2011-02-18,-42.94, 77.34, -1929.65, 1.98, 1.57, 7.31, repro,
2011-02-19,-42.17, 76.19, -1937.29, 1.99, 1.58, 7.30, repro,
2011-02-20,-41.90, 75.57, -1935.00, 2.33, 1.93, 8.78, repro,
2011-02-21,-41.50, 73.82, -1907.13, 8.88, 5.98, 32.04, repro,
2011-02-22,-41.75, 77.05, -1925.13, 1.97, 1.55, 7.12, repro,
2011-02-23,-43.18, 76.98, -1929.16, 2.01, 1.61, 7.37, repro,
2011-02-24,-42.76, 77.47, -1929.75, 1.94, 1.52, 7.08, repro,
2011-02-25,-43.17, 77.46, -1926.75, 1.95, 1.52, 7.10, repro,
2011-02-26,-41.13, 77.50, -1922.60, 1.98, 1.56, 7.24, repro,
2011-02-27,-42.19, 77.97, -1922.86, 2.02, 1.55, 7.19, repro,
2011-02-28,-42.65, 77.94, -1928.61, 1.95, 1.53, 7.12, repro,
2011-03-01,-43.22, 78.18, -1933.57, 1.94, 1.52, 7.06, repro,
2011-03-02,-43.67, 78.22, -1929.93, 1.97, 1.55, 7.22, repro,
2011-03-03,-43.62, 78.99, -1938.15, 2.00, 1.57, 7.27, repro,
2011-03-26,-37.63, 78.77, -1932.14, 4.46, 3.42, 16.72, repro,
2011-03-27,-41.30, 77.20, -1940.09, 1.97, 1.52, 7.08, repro,
2011-03-28,-42.55, 77.04, -1939.56, 1.97, 1.52, 7.10, repro,
2011-03-29,-43.48, 76.92, -1939.55, 2.00, 1.55, 7.23, repro,
2011-03-30,-43.17, 77.66, -1933.50, 2.02, 1.58, 7.29, repro,
2011-03-31,-42.46, 77.06, -1937.80, 2.06, 1.58, 7.37, repro,
2011-04-01,-42.96, 78.38, -1935.87, 2.03, 1.56, 7.28, repro,
2011-04-02,-41.91, 76.95, -1938.11, 2.05, 1.59, 7.40, repro,
2011-04-03,-43.92, 76.82, -1941.16, 2.03, 1.57, 7.31, repro,
2011-04-04,-42.80, 76.94, -1932.70, 2.00, 1.56, 7.23, repro,
2011-04-05,-44.50, 75.91, -1924.78, 2.09, 1.64, 7.63, repro,
2011-04-06,-42.33, 76.83, -1933.39, 2.05, 1.58, 7.45, repro,
2011-04-07,-43.67, 78.74, -1933.76, 2.01, 1.54, 7.23, repro,
2011-04-08,-43.47, 77.18, -1932.58, 1.98, 1.53, 7.12, repro,
2011-04-09,-41.24, 77.47, -1928.66, 2.03, 1.56, 7.26, repro,
2011-04-10,-43.21, 77.40, -1933.59, 2.00, 1.58, 7.26, repro,
2011-04-11,-41.62, 76.38, -1933.54, 2.02, 1.61, 7.33, repro,
2011-04-12,-42.94, 77.42, -1933.27, 2.01, 1.60, 7.29, repro,
2011-04-13,-44.13, 76.12, -1935.09, 1.98, 1.56, 7.30, repro,
2011-04-14,-42.07, 78.25, -1940.07, 1.94, 1.52, 7.08, repro,
2011-04-15,-43.36, 77.96, -1937.21, 1.99, 1.55, 7.23, repro,
2011-04-16,-42.62, 77.66, -1932.66, 1.99, 1.54, 7.23, repro,
2011-04-17,-41.95, 77.19, -1935.60, 1.95, 1.52, 7.10, repro,
2011-04-18,-42.93, 77.30, -1933.58, 1.97, 1.53, 7.16, repro,
2011-04-19,-42.75, 77.63, -1929.68, 1.96, 1.53, 7.15, repro,
2011-04-20,-43.41, 76.93, -1923.49, 2.08, 1.64, 7.65, repro,
2011-04-21,-42.19, 76.53, -1929.64, 2.01, 1.56, 7.39, repro,
2011-04-22,-43.83, 77.58, -1932.78, 1.93, 1.51, 7.07, repro,
2011-04-23,-42.08, 77.12, -1928.90, 1.96, 1.52, 7.14, repro,
2011-04-24,-41.95, 77.51, -1927.97, 1.96, 1.52, 7.14, repro,
2011-04-25,-42.23, 77.68, -1929.23, 1.97, 1.53, 7.17, repro,
2011-04-26,-41.98, 76.84, -1933.90, 1.97, 1.53, 7.20, repro,
2011-04-27,-41.55, 75.74, -1934.32, 2.40, 1.85, 8.93, repro,
2011-04-28,-44.20, 76.97, -1933.47, 1.96, 1.52, 7.17, repro,
2011-04-29,-42.27, 78.00, -1935.87, 1.96, 1.52, 7.14, repro,
2011-04-30,-42.04, 79.77, -1935.87, 2.01, 1.57, 7.37, repro,
2011-05-01,-43.57, 79.28, -1937.32, 2.08, 1.66, 7.74, repro,
2011-05-02,-45.41, 77.93, -1933.30, 1.99, 1.54, 7.27, repro,
2011-05-03,-46.98, 78.01, -1935.65, 1.97, 1.55, 7.20, repro,
2011-05-04,-44.02, 78.67, -1934.39, 1.97, 1.54, 7.14, repro,
2011-05-05,-44.25, 79.46, -1933.29, 2.01, 1.57, 7.33, repro,
2011-05-06,-44.55, 78.10, -1935.31, 2.00, 1.56, 7.31, repro,
2011-05-07,-44.75, 78.14, -1925.51, 2.00, 1.57, 7.36, repro,
2011-05-08,-44.20, 77.51, -1916.73, 2.03, 1.60, 7.46, repro,
2011-05-09,-45.15, 77.16, -1929.11, 1.98, 1.56, 7.28, repro,
2011-05-10,-40.90, 79.40, -1932.80, 1.96, 1.57, 7.33, repro,
2011-05-11,-44.21, 77.20, -1930.11, 1.95, 1.52, 7.09, repro,
2011-05-12,-44.18, 77.19, -1928.99, 1.96, 1.53, 7.16, repro,
2011-05-13,-43.78, 77.81, -1938.36, 1.96, 1.53, 7.16, repro,
2011-05-14,-44.59, 76.12, -1932.64, 2.03, 1.61, 7.44, repro,
2011-05-15,-44.39, 76.39, -1937.52, 2.00, 1.56, 7.34, repro,
2011-05-16,-39.95, 77.27, -1931.43, 1.99, 1.55, 7.27, repro,
2011-05-17,-44.20, 76.69, -1928.06, 2.00, 1.55, 7.29, repro,
2011-05-18,-44.06, 75.32, -1935.05, 2.07, 1.63, 7.64, repro,
2011-05-19,-43.97, 75.08, -1935.17, 2.05, 1.66, 7.77, repro,
2011-05-20,-43.45, 77.67, -1933.75, 2.10, 1.66, 7.86, repro,
2011-05-21,-44.10, 77.64, -1937.34, 1.98, 1.56, 7.29, repro,
2011-05-22,-42.96, 77.59, -1934.01, 2.04, 1.58, 7.42, repro,
2011-05-23,-43.51, 76.81, -1937.04, 1.99, 1.56, 7.29, repro,
2011-05-24,-42.88, 75.98, -1934.47, 2.03, 1.59, 7.45, repro,
2011-05-25,-44.90, 78.09, -1938.89, 1.98, 1.58, 7.36, repro,
2011-05-26,-42.09, 77.42, -1936.78, 1.99, 1.57, 7.35, repro,
2011-05-27,-42.25, 76.86, -1936.63, 2.01, 1.59, 7.41, repro,
2011-05-28,-41.96, 77.82, -1931.10, 1.99, 1.55, 7.28, repro,
2011-05-29,-40.28, 77.05, -1932.93, 2.01, 1.57, 7.38, repro,
2011-05-30,-41.93, 76.91, -1930.98, 1.99, 1.56, 7.33, repro,
2011-05-31,-44.50, 76.31, -1929.20, 1.99, 1.56, 7.30, repro,
2011-06-01,-42.90, 75.15, -1938.95, 1.98, 1.55, 7.29, repro,
2011-06-02,-42.24, 76.42, -1939.53, 2.00, 1.56, 7.26, repro,
2011-06-03,-41.36, 76.60, -1942.55, 1.99, 1.54, 7.24, repro,
2011-06-04,-42.71, 74.61, -1932.90, 2.03, 1.58, 7.46, repro,
2011-06-05,-41.68, 75.04, -1930.68, 1.98, 1.56, 7.24, repro,
2011-06-06,-43.01, 76.13, -1929.63, 1.99, 1.55, 7.29, repro,
2011-06-07,-40.69, 77.92, -1933.81, 1.99, 1.55, 7.28, repro,
2011-06-08,-41.83, 76.68, -1931.50, 2.00, 1.55, 7.27, repro,
2011-06-09,-42.84, 78.09, -1943.61, 1.99, 1.56, 7.29, repro,
2011-06-10,-43.82, 76.25, -1934.20, 1.99, 1.56, 7.30, repro,
2011-06-11,-43.93, 76.43, -1929.22, 1.97, 1.55, 7.22, repro,
2011-06-12,-43.03, 76.07, -1928.62, 1.99, 1.55, 7.32, repro,
2011-06-13,-41.63, 78.29, -1932.39, 2.00, 1.56, 7.34, repro,
2011-06-14,-43.14, 77.30, -1936.93, 1.99, 1.56, 7.33, repro,
2011-06-15,-43.35, 75.60, -1935.41, 2.00, 1.58, 7.40, repro,
2011-06-16,-43.76, 77.26, -1932.49, 1.99, 1.57, 7.35, repro,
2011-06-17,-43.29, 78.97, -1931.77, 3.22, 2.81, 12.36, repro,
2011-06-18,-38.83, 80.78, -1937.24, 4.41, 3.06, 15.48, repro,
2011-06-19,-43.22, 76.44, -1927.69, 1.99, 1.57, 7.32, repro,
2011-06-20,-43.21, 77.04, -1931.98, 1.99, 1.56, 7.30, repro,
2011-06-21,-42.99, 76.46, -1928.57, 2.00, 1.58, 7.39, repro,
2011-06-22,-43.07, 76.82, -1932.11, 2.03, 1.59, 7.47, repro,
2011-06-23,-41.74, 76.20, -1936.62, 3.03, 2.41, 11.62, repro,
2011-06-24,-43.77, 76.23, -1929.75, 2.22, 1.76, 8.07, repro,
2011-06-25,-43.20, 77.34, -1930.80, 1.98, 1.56, 7.33, repro,
2011-06-26,-43.55, 75.32, -1928.69, 2.01, 1.58, 7.38, repro,
2011-06-27,-43.70, 75.43, -1931.85, 1.99, 1.56, 7.30, repro,
2011-06-28,-41.92, 76.52, -1925.92, 1.99, 1.56, 7.28, repro,
2011-06-29,-41.64, 76.25, -1929.41, 1.99, 1.57, 7.35, repro,
2011-06-30,-41.53, 76.26, -1934.38, 2.00, 1.56, 7.31, repro,
2011-07-01,-40.64, 75.95, -1935.29, 1.99, 1.56, 7.30, repro,
2011-07-02,-40.49, 75.38, -1931.22, 2.02, 1.57, 7.42, repro,
2011-07-03,-41.56, 76.45, -1929.53, 2.00, 1.55, 7.33, repro,
2011-07-04,-40.38, 77.02, -1938.91, 2.04, 1.59, 7.41, repro,
2011-07-05,-40.43, 77.60, -1939.40, 2.01, 1.56, 7.37, repro,
2011-07-06,-40.41, 76.68, -1930.75, 1.99, 1.56, 7.32, repro,
2011-07-07,-41.96, 77.05, -1934.45, 2.00, 1.56, 7.34, repro,
2011-07-08,-40.37, 75.47, -1931.08, 2.00, 1.56, 7.35, repro,
2011-07-09,-39.46, 77.65, -1930.78, 2.00, 1.56, 7.35, repro,
2011-07-10,-40.28, 76.16, -1927.39, 1.99, 1.55, 7.29, repro,
2011-07-11,-41.25, 75.61, -1931.32, 1.98, 1.55, 7.28, repro,
2011-07-12,-41.66, 76.96, -1938.44, 2.00, 1.56, 7.35, repro,
2011-07-13,-42.86, 75.16, -1935.22, 1.98, 1.55, 7.25, repro,
2011-07-14,-40.93, 75.47, -1927.34, 1.99, 1.56, 7.35, repro,
2011-07-15,-39.98, 74.95, -1937.38, 1.99, 1.55, 7.30, repro,
2011-07-16,-41.68, 75.65, -1937.62, 2.01, 1.58, 7.40, repro,
2011-07-17,-42.11, 75.76, -1937.16, 2.00, 1.56, 7.30, repro,
2011-07-18,-42.81, 75.88, -1932.05, 1.99, 1.55, 7.28, repro,
2011-07-19,-40.14, 75.51, -1932.47, 1.98, 1.54, 7.21, repro,
2011-07-20,-41.45, 75.60, -1931.72, 2.01, 1.58, 7.37, repro,
2011-07-21,-41.86, 75.39, -1937.70, 2.03, 1.60, 7.51, repro,
2011-07-22,-42.64, 75.28, -1934.86, 2.01, 1.56, 7.34, repro,
2011-07-23,-42.63, 75.47, -1933.29, 2.03, 1.59, 7.44, repro,
2011-07-24,-39.73, 75.12, -1929.06, 1.98, 1.54, 7.23, repro,
2011-07-25,-41.36, 75.23, -1924.09, 1.99, 1.55, 7.26, repro,
2011-07-26,-39.88, 75.73, -1930.41, 2.04, 1.61, 7.54, repro,